Voltar ao catálogo

WEILI KONGJIAN 05-03

AtivoNavegaçãoLEO
NORAD 69584·PAYLOAD·🇨🇳 China
Este nome de satélite ainda não foi confirmado por fontes oficiais.

Lançado Jun 17, 2026 de Jiuquan Satellite Launch Center

Loading…

Próximas Passagens (próximas 24 horas)

TLE

AtualizadoSource: Space-Track

Época: Sep 14, 2026, 04:05 UTC

1 69584U 26138C   26257.17072685 -.00000007  00000-0  83798-4 0  9997
2 69584  55.1411 313.0774 0008037 262.8981  97.1076 14.08162345 12614

Acompanhe WEILI KONGJIAN 05-03 em tempo real com AllMySat

Download on the App Store